Time,TemperatureF,DewpointF,PressureIn,WindDirection,WindDirectionDegrees,WindSpeedMPH,WindSpeedGustMPH,Humidity,HourlyPrecipIn,Conditions,Clouds,dailyrainin,SoftwareType,DateUTC
2013-06-13 00:00:00,65.4,58.7,29.72,NNW,331,0.0,0.0,79,0.00,,,0.00,Wunderground v.1.15,2013-06-13 04:00:00,
2013-06-13 00:05:00,65.3,59.0,29.72,NNW,331,0.0,0.0,80,0.00,,,0.00,Wunderground v.1.15,2013-06-13 04:05:00,
2013-06-13 00:10:00,65.3,59.0,29.72,NNW,331,0.0,0.0,80,0.00,,,0.00,Wunderground v.1.15,2013-06-13 04:10:00,
2013-06-13 00:15:00,65.1,58.4,29.72,NNW,331,0.0,0.0,79,0.00,,,0.00,Wunderground v.1.15,2013-06-13 04:15:00,
2013-06-13 00:25:00,64.6,58.3,29.71,NNW,331,0.0,0.0,80,0.00,,,0.00,Wunderground v.1.15,2013-06-13 04:25:00,
2013-06-13 09:55:00,59.6,58.2,29.48,NE,49,0.0,0.0,95,0.08,,,0.83,Wunderground v.1.15,2013-06-13 13:55:00,
2013-06-13 10:00:00,59.6,58.2,29.48,NE,49,0.0,0.0,95,0.16,,,0.85,Wunderground v.1.15,2013-06-13 14:00:00,
2013-06-13 10:05:00,59.6,58.2,29.48,ENE,65,0.0,2.0,95,0.15,,,0.86,Wunderground v.1.15,2013-06-13 14:05:00,
2013-06-13 10:10:00,59.6,58.2,29.48,ENE,63,1.0,1.0,95,0.16,,,0.87,Wunderground v.1.15,2013-06-13 14:10:00,
2013-06-13 10:15:00,59.5,58.1,29.48,NE,43,1.0,2.0,95,0.55,,,0.90,Wunderground v.1.15,2013-06-13 14:15:00,
2013-06-13 10:20:00,59.6,58.2,29.47,North,9,1.0,1.0,95,0.34,,,0.94,Wunderground v.1.15,2013-06-13 14:20:00,
2013-06-13 10:30:00,59.7,58.6,29.47,North,360,1.0,1.0,96,0.26,,,0.98,Wunderground v.1.15,2013-06-13 14:30:00,
2013-06-13 10:35:00,59.8,58.7,29.47,North,355,1.0,2.0,96,0.17,,,0.99,Wunderground v.1.15,2013-06-13 14:35:00,
2013-06-13 10:40:00,59.8,58.7,29.47,North,355,0.0,6.0,96,0.13,,,1.00,Wunderground v.1.15,2013-06-13 14:40:00,
2013-06-13 10:45:00,59.9,58.8,29.47,NNW,327,1.0,6.0,96,0.11,,,1.01,Wunderground v.1.15,2013-06-13 14:45:00,
2013-06-13 10:50:00,59.9,58.8,29.47,North,351,1.0,6.0,96,0.10,,,1.02,Wunderground v.1.15,2013-06-13 14:50:00,
2013-06-13 10:55:00,60.0,58.9,29.46,NW,305,1.0,6.0,96,0.08,,,1.03,Wunderground v.1.15,2013-06-13 14:55:00,
2013-06-13 11:00:00,60.1,59.0,29.46,North,355,1.0,1.0,96,0.11,,,1.03,Wunderground v.1.15,2013-06-13 15:00:00,
2013-06-13 11:10:00,60.2,59.1,29.47,NNW,343,1.0,6.0,96,0.06,,,1.04,Wunderground v.1.15,2013-06-13 15:10:00,
2013-06-13 11:15:00,60.2,59.1,29.47,WSW,244,1.0,6.0,96,0.05,,,1.05,Wunderground v.1.15,2013-06-13 15:15:00,
2013-06-13 11:20:00,60.1,59.0,29.47,NW,325,1.0,1.0,96,0.10,,,1.06,Wunderground v.1.15,2013-06-13 15:20:00,
2013-06-13 11:25:00,60.1,59.0,29.47,NNW,340,1.0,3.0,96,0.08,,,1.07,Wunderground v.1.15,2013-06-13 15:25:00,
2013-06-13 11:30:00,60.0,58.9,29.47,NW,326,1.0,1.0,96,0.11,,,1.08,Wunderground v.1.15,2013-06-13 15:30:00,
2013-06-13 11:35:00,60.1,59.2,29.47,NNW,331,1.0,6.0,97,0.13,,,1.09,Wunderground v.1.15,2013-06-13 15:35:00,
2013-06-13 11:40:00,60.1,59.2,29.47,NNE,30,1.0,6.0,97,0.10,,,1.09,Wunderground v.1.15,2013-06-13 15:40:00,
2013-06-13 11:50:00,60.2,59.3,29.47,WNW,302,1.0,6.0,97,0.09,,,1.11,Wunderground v.1.15,2013-06-13 15:50:00,
2013-06-13 11:55:00,60.1,59.2,29.47,NW,306,1.0,6.0,97,0.14,,,1.13,Wunderground v.1.15,2013-06-13 15:55:00,
2013-06-13 12:00:00,59.9,59.0,29.47,North,355,1.0,6.0,97,0.17,,,1.14,Wunderground v.1.15,2013-06-13 16:00:00,
2013-06-13 12:05:00,59.8,58.7,29.47,North,355,1.0,6.0,96,0.35,,,1.17,Wunderground v.1.15,2013-06-13 16:05:00,
2013-06-13 12:10:00,59.7,58.6,29.47,North,355,1.0,6.0,96,0.44,,,1.22,Wunderground v.1.15,2013-06-13 16:10:00,
2013-06-13 12:15:00,59.6,58.5,29.47,NNE,12,1.0,6.0,96,0.92,,,1.29,Wunderground v.1.15,2013-06-13 16:15:00,
2013-06-13 12:25:00,59.5,58.6,29.48,North,355,2.0,6.0,97,0.36,,,1.39,Wunderground v.1.15,2013-06-13 16:25:00,
2013-06-13 12:30:00,59.5,58.6,29.48,NNW,343,1.0,6.0,97,0.16,,,1.40,Wunderground v.1.15,2013-06-13 16:30:00,
2013-06-13 12:35:00,59.4,58.5,29.48,NNW,343,2.0,6.0,97,0.09,,,1.40,Wunderground v.1.15,2013-06-13 16:35:00,
2013-06-13 12:40:00,59.0,57.9,29.49,NNW,347,2.0,2.0,96,0.07,,,1.41,Wunderground v.1.15,2013-06-13 16:40:00,
2013-06-13 12:45:00,59.0,57.9,29.49,NNW,335,2.0,6.0,96,0.07,,,1.41,Wunderground v.1.15,2013-06-13 16:45:00,
2013-06-13 12:50:00,58.8,58.0,29.49,North,360,3.0,6.0,97,0.05,,,1.42,Wunderground v.1.15,2013-06-13 16:50:00,
2013-06-13 12:55:00,58.6,57.8,29.49,North,360,3.0,6.0,97,0.05,,,1.42,Wunderground v.1.15,2013-06-13 16:55:00,
2013-06-13 13:05:00,58.4,57.6,29.50,NW,319,2.0,6.0,97,0.04,,,1.43,Wunderground v.1.15,2013-06-13 17:05:00,
2013-06-13 13:15:00,58.4,57.6,29.49,NW,325,3.0,7.0,97,0.04,,,1.43,Wunderground v.1.15,2013-06-13 17:15:00,
2013-06-13 13:20:00,58.6,57.8,29.49,NNE,27,2.0,6.0,97,0.05,,,1.44,Wunderground v.1.15,2013-06-13 17:20:00,
2013-06-13 13:25:00,58.6,57.8,29.49,ENE,74,3.0,6.0,97,0.05,,,1.44,Wunderground v.1.15,2013-06-13 17:25:00,
2013-06-13 13:30:00,58.7,57.9,29.49,East,89,3.0,3.0,97,0.04,,,1.44,Wunderground v.1.15,2013-06-13 17:30:00,
2013-06-13 13:35:00,58.5,57.7,29.49,North,11,4.0,9.0,97,0.00,,,1.44,Wunderground v.1.15,2013-06-13 17:35:00,
2013-06-13 13:40:00,58.4,57.6,29.49,NNW,341,4.0,6.0,97,0.00,,,1.44,Wunderground v.1.15,2013-06-13 17:40:00,
2013-06-13 13:45:00,58.5,57.7,29.49,North,5,3.0,6.0,97,0.00,,,1.44,Wunderground v.1.15,2013-06-13 17:45:00,
2013-06-13 13:55:00,58.7,57.9,29.50,NW,317,3.0,6.0,97,0.00,,,1.44,Wunderground v.1.15,2013-06-13 17:55:00,
2013-06-13 14:00:00,58.6,57.8,29.50,NNW,335,4.0,4.0,97,0.00,,,1.44,Wunderground v.1.15,2013-06-13 18:00:00,
2013-06-13 14:05:00,58.5,57.7,29.51,NNE,15,3.0,6.0,97,0.00,,,1.44,Wunderground v.1.15,2013-06-13 18:05:00,
2013-06-13 14:10:00,58.4,57.6,29.51,North,11,3.0,6.0,97,0.00,,,1.44,Wunderground v.1.15,2013-06-13 18:10:00,
2013-06-13 14:15:00,58.3,57.5,29.51,NNW,335,3.0,10.0,97,0.00,,,1.44,Wunderground v.1.15,2013-06-13 18:15:00,
2013-06-13 14:20:00,58.4,57.6,29.52,North,10,4.0,4.0,97,0.00,,,1.44,Wunderground v.1.15,2013-06-13 18:20:00,
2013-06-13 14:25:00,58.6,57.8,29.52,East,92,3.0,6.0,97,0.00,,,1.44,Wunderground v.1.15,2013-06-13 18:25:00,
2013-06-13 14:35:00,59.0,58.2,29.52,North,360,1.0,6.0,97,0.00,,,1.44,Wunderground v.1.15,2013-06-13 18:35:00,
2013-06-13 14:40:00,59.3,58.4,29.53,East,96,2.0,6.0,97,0.00,,,1.44,Wunderground v.1.15,2013-06-13 18:40:00,
2013-06-13 14:45:00,59.0,57.9,29.53,East,87,3.0,6.0,96,0.00,,,1.44,Wunderground v.1.15,2013-06-13 18:45:00,
2013-06-13 14:50:00,59.0,57.9,29.53,NNW,345,4.0,4.0,96,0.00,,,1.44,Wunderground v.1.15,2013-06-13 18:50:00,
2013-06-13 14:55:00,59.0,57.9,29.54,NNW,337,3.0,6.0,96,0.00,,,1.44,Wunderground v.1.15,2013-06-13 18:55:00,
2013-06-13 15:00:00,59.4,58.3,29.54,NW,314,2.0,2.0,96,0.00,,,1.44,Wunderground v.1.15,2013-06-13 19:00:00,
2013-06-13 15:10:00,59.3,58.2,29.55,NNW,327,2.0,2.0,96,0.00,,,1.44,Wunderground v.1.15,2013-06-13 19:10:00,
2013-06-13 15:15:00,59.4,58.0,29.55,NNW,337,2.0,6.0,95,0.00,,,1.44,Wunderground v.1.15,2013-06-13 19:15:00,
2013-06-13 15:20:00,59.5,58.1,29.55,NNW,347,1.0,6.0,95,0.00,,,1.44,Wunderground v.1.15,2013-06-13 19:20:00,
2013-06-13 15:25:00,59.4,58.0,29.55,NNW,329,2.0,6.0,95,0.00,,,1.44,Wunderground v.1.15,2013-06-13 19:25:00,
2013-06-13 15:30:00,59.4,58.0,29.55,North,5,2.0,2.0,95,0.00,,,1.44,Wunderground v.1.15,2013-06-13 19:30:00,
2013-06-13 15:35:00,59.5,58.1,29.55,SSW,210,2.0,5.0,95,0.00,,,1.44,Wunderground v.1.15,2013-06-13 19:35:00,
2013-06-13 15:40:00,59.4,57.7,29.56,West,281,2.0,6.0,94,0.00,,,1.44,Wunderground v.1.15,2013-06-13 19:40:00,
2013-06-13 15:45:00,59.4,57.7,29.58,NNW,348,2.0,6.0,94,0.00,,,1.44,Wunderground v.1.15,2013-06-13 19:45:00,
2013-06-13 16:00:00,59.5,57.5,29.58,NW,309,2.0,6.0,93,0.00,,,1.44,Wunderground v.1.15,2013-06-13 20:00:00,
2013-06-13 16:05:00,59.6,57.6,29.59,NW,317,1.0,6.0,93,0.00,,,1.44,Wunderground v.1.15,2013-06-13 20:05:00,
2013-06-13 16:10:00,59.7,57.7,29.59,North,355,1.0,6.0,93,0.00,,,1.44,Wunderground v.1.15,2013-06-13 20:10:00,
2013-06-13 16:15:00,59.6,57.6,29.59,North,360,3.0,6.0,93,0.00,,,1.44,Wunderground v.1.15,2013-06-13 20:15:00,
2013-06-13 16:20:00,59.0,56.7,29.59,North,360,3.0,6.0,92,0.00,,,1.44,Wunderground v.1.15,2013-06-13 20:20:00,
2013-06-13 16:30:00,57.2,54.9,29.60,North,360,5.0,5.0,92,0.00,,,1.44,Wunderground v.1.15,2013-06-13 20:30:00,
2013-06-13 16:35:00,56.9,54.6,29.60,NNE,24,4.0,6.0,92,0.00,,,1.44,Wunderground v.1.15,2013-06-13 20:35:00,
2013-06-13 16:40:00,56.8,54.5,29.61,NNW,329,5.0,8.0,92,0.00,,,1.44,Wunderground v.1.15,2013-06-13 20:40:00,
2013-06-13 16:45:00,56.8,54.8,29.61,NW,308,5.0,8.0,93,0.00,,,1.44,Wunderground v.1.15,2013-06-13 20:45:00,
2013-06-13 16:50:00,56.8,54.8,29.62,NNE,30,5.0,5.0,93,0.00,,,1.44,Wunderground v.1.15,2013-06-13 20:50:00,
2013-06-13 16:55:00,56.9,54.9,29.62,North,355,5.0,6.0,93,0.00,,,1.44,Wunderground v.1.15,2013-06-13 20:55:00,
2013-06-13 17:00:00,56.9,54.9,29.62,NNW,344,5.0,5.0,93,0.00,,,1.44,Wunderground v.1.15,2013-06-13 21:00:00,
2013-06-13 17:10:00,57.1,55.1,29.62,North,9,5.0,5.0,93,0.00,,,1.44,Wunderground v.1.15,2013-06-13 21:10:00,
2013-06-13 17:15:00,57.2,55.2,29.63,North,355,5.0,6.0,93,0.00,,,1.44,Wunderground v.1.15,2013-06-13 21:15:00,
2013-06-13 17:20:00,57.2,55.2,29.63,North,355,4.0,8.0,93,0.00,,,1.44,Wunderground v.1.15,2013-06-13 21:20:00,
2013-06-13 17:25:00,57.3,55.6,29.63,NNE,18,4.0,8.0,94,0.00,,,1.44,Wunderground v.1.15,2013-06-13 21:25:00,
2013-06-13 17:30:00,57.4,55.7,29.64,North,5,4.0,4.0,94,0.00,,,1.44,Wunderground v.1.15,2013-06-13 21:30:00,
2013-06-13 17:35:00,57.6,55.9,29.63,NNW,335,4.0,6.0,94,0.00,,,1.44,Wunderground v.1.15,2013-06-13 21:35:00,
2013-06-13 17:40:00,57.8,55.8,29.64,North,5,3.0,6.0,93,0.00,,,1.44,Wunderground v.1.15,2013-06-13 21:40:00,
2013-06-13 17:50:00,58.2,56.2,29.64,NNW,348,4.0,7.0,93,0.00,,,1.44,Wunderground v.1.15,2013-06-13 21:50:00,
2013-06-13 17:55:00,58.4,56.4,29.64,North,355,4.0,7.0,93,0.00,,,1.44,Wunderground v.1.15,2013-06-13 21:55:00,
2013-06-13 18:00:00,58.6,56.6,29.64,North,355,4.0,4.0,93,0.00,,,1.44,Wunderground v.1.15,2013-06-13 22:00:00,
2013-06-13 18:05:00,58.7,56.4,29.64,NNE,15,3.0,6.0,92,0.00,,,1.44,Wunderground v.1.15,2013-06-13 22:05:00,
2013-06-13 18:10:00,58.8,56.5,29.64,NNE,14,3.0,6.0,92,0.00,,,1.44,Wunderground v.1.15,2013-06-13 22:10:00,
2013-06-13 18:15:00,59.0,56.7,29.64,North,5,3.0,6.0,92,0.00,,,1.44,Wunderground v.1.15,2013-06-13 22:15:00,
2013-06-13 18:25:00,59.0,56.7,29.65,North,350,2.0,6.0,92,0.00,,,1.44,Wunderground v.1.15,2013-06-13 22:25:00,
2013-06-13 18:30:00,59.0,56.4,29.65,NNW,342,3.0,6.0,91,0.00,,,1.44,Wunderground v.1.15,2013-06-13 22:30:00,
2013-06-13 18:35:00,59.4,56.8,29.65,North,349,4.0,6.0,91,0.00,,,1.44,Wunderground v.1.15,2013-06-13 22:35:00,
2013-06-13 18:40:00,59.5,56.6,29.66,NNW,348,4.0,9.0,90,0.00,,,1.44,Wunderground v.1.15,2013-06-13 22:40:00,
2013-06-13 18:45:00,59.6,56.7,29.66,North,355,4.0,9.0,90,0.00,,,1.44,Wunderground v.1.15,2013-06-13 22:45:00,
2013-06-13 18:50:00,59.7,56.5,29.66,North,351,4.0,10.0,89,0.00,,,1.44,Wunderground v.1.15,2013-06-13 22:50:00,
2013-06-13 19:00:00,60.7,57.1,29.67,North,355,5.0,7.0,88,0.00,,,1.44,Wunderground v.1.15,2013-06-13 23:00:00,
2013-06-13 19:05:00,61.3,57.4,29.67,ENE,64,5.0,7.0,87,0.00,,,1.44,Wunderground v.1.15,2013-06-13 23:05:00,
2013-06-13 19:10:00,61.7,57.5,29.67,NNW,336,4.0,4.0,86,0.00,,,1.44,Wunderground v.1.15,2013-06-13 23:10:00,
2013-06-13 19:15:00,61.7,57.1,29.67,NNW,333,4.0,6.0,85,0.00,,,1.44,Wunderground v.1.15,2013-06-13 23:15:00,
2013-06-13 19:20:00,61.4,56.8,29.67,NNW,334,3.0,6.0,85,0.00,,,1.44,Wunderground v.1.15,2013-06-13 23:20:00,
2013-06-13 19:25:00,61.2,56.7,29.67,North,355,3.0,6.0,85,0.00,,,1.44,Wunderground v.1.15,2013-06-13 23:25:00,
2013-06-13 19:30:00,61.1,56.6,29.68,North,9,3.0,6.0,85,0.00,,,1.44,Wunderground v.1.15,2013-06-13 23:30:00,
2013-06-13 19:35:00,61.0,56.5,29.68,NNW,334,3.0,6.0,85,0.00,,,1.44,Wunderground v.1.15,2013-06-13 23:35:00,
2013-06-13 19:45:00,60.7,56.2,29.68,NNW,342,1.0,6.0,85,0.00,,,1.44,Wunderground v.1.15,2013-06-13 23:45:00,
2013-06-13 19:50:00,60.6,56.4,29.68,NNE,20,2.0,6.0,86,0.00,,,1.44,Wunderground v.1.15,2013-06-13 23:50:00,
2013-06-13 19:55:00,60.5,56.3,29.69,NNW,338,2.0,6.0,86,0.00,,,1.44,Wunderground v.1.15,2013-06-13 23:55:00,
2013-06-13 20:00:00,60.5,56.3,29.69,NNW,342,2.0,6.0,86,0.00,,,1.44,Wunderground v.1.15,2013-06-14 00:00:00,
2013-06-13 20:05:00,60.5,56.3,29.69,North,355,2.0,6.0,86,0.00,,,1.44,Wunderground v.1.15,2013-06-14 00:05:00,
2013-06-13 20:10:00,60.4,56.2,29.69,North,5,2.0,6.0,86,0.00,,,1.44,Wunderground v.1.15,2013-06-14 00:10:00,
2013-06-13 20:15:00,60.1,55.6,29.70,NW,321,2.0,6.0,85,0.00,,,1.44,Wunderground v.1.15,2013-06-14 00:15:00,
2013-06-13 20:20:00,59.8,55.6,29.70,NNW,335,2.0,2.0,86,0.00,,,1.44,Wunderground v.1.15,2013-06-14 00:20:00,
2013-06-13 20:30:00,59.3,55.1,29.71,NNW,335,1.0,6.0,86,0.00,,,1.44,Wunderground v.1.15,2013-06-14 00:30:00,
2013-06-13 20:35:00,59.0,54.8,29.71,NNW,335,1.0,6.0,86,0.00,,,1.44,Wunderground v.1.15,2013-06-14 00:35:00,
2013-06-13 20:40:00,59.0,55.1,29.71,NNW,335,1.0,1.0,87,0.00,,,1.44,Wunderground v.1.15,2013-06-14 00:40:00,
2013-06-13 20:45:00,59.0,55.1,29.71,NNW,335,0.0,4.0,87,0.00,,,1.44,Wunderground v.1.15,2013-06-14 00:45:00,
2013-06-13 20:50:00,58.7,54.8,29.71,NNW,335,1.0,1.0,87,0.00,,,1.44,Wunderground v.1.15,2013-06-14 00:50:00,
2013-06-13 20:55:00,58.6,54.7,29.72,NNW,335,0.0,6.0,87,0.00,,,1.44,Wunderground v.1.15,2013-06-14 00:55:00,
2013-06-13 21:00:00,58.5,54.6,29.72,NNW,335,0.0,6.0,87,0.00,,,1.44,Wunderground v.1.15,2013-06-14 01:00:00,
2013-06-13 21:10:00,58.2,54.7,29.72,NNW,335,0.0,6.0,88,0.00,,,1.44,Wunderground v.1.15,2013-06-14 01:10:00,
2013-06-13 21:15:00,58.1,54.6,29.72,NNW,335,0.0,6.0,88,0.00,,,1.44,Wunderground v.1.15,2013-06-14 01:15:00,
2013-06-13 21:20:00,57.9,54.4,29.72,NNW,335,0.0,6.0,88,0.00,,,1.44,Wunderground v.1.15,2013-06-14 01:20:00,
2013-06-13 21:25:00,57.8,54.3,29.72,NNW,335,0.0,6.0,88,0.00,,,1.44,Wunderground v.1.15,2013-06-14 01:25:00,
2013-06-13 21:30:00,57.7,54.2,29.72,NNW,335,0.0,6.0,88,0.00,,,1.44,Wunderground v.1.15,2013-06-14 01:30:00,
2013-06-13 21:35:00,57.6,54.4,29.72,NNW,335,0.0,6.0,89,0.00,,,1.44,Wunderground v.1.15,2013-06-14 01:35:00,
2013-06-13 21:45:00,57.4,54.2,29.72,NNW,335,0.0,6.0,89,0.00,,,1.44,Wunderground v.1.15,2013-06-14 01:45:00,
2013-06-13 21:50:00,57.4,54.2,29.72,NNW,335,0.0,6.0,89,0.00,,,1.44,Wunderground v.1.15,2013-06-14 01:50:00,
2013-06-13 21:55:00,57.3,54.1,29.72,NNW,335,0.0,6.0,89,0.00,,,1.44,Wunderground v.1.15,2013-06-14 01:55:00,
2013-06-13 22:00:00,57.2,54.3,29.72,NNW,335,0.0,6.0,90,0.00,,,1.44,Wunderground v.1.15,2013-06-14 02:00:00,
2013-06-13 22:05:00,57.1,54.2,29.73,NNW,335,0.0,6.0,90,0.00,,,1.44,Wunderground v.1.15,2013-06-14 02:05:00,
2013-06-13 22:10:00,57.1,54.2,29.73,NNW,335,0.0,6.0,90,0.00,,,1.44,Wunderground v.1.15,2013-06-14 02:10:00,
2013-06-13 22:15:00,56.9,54.0,29.73,NNW,335,0.0,6.0,90,0.00,,,1.44,Wunderground v.1.15,2013-06-14 02:15:00,
2013-06-13 22:25:00,56.7,53.8,29.73,NNW,335,0.0,6.0,90,0.00,,,1.44,Wunderground v.1.15,2013-06-14 02:25:00,
2013-06-13 22:30:00,56.6,53.7,29.73,NNW,335,0.0,6.0,90,0.00,,,1.44,Wunderground v.1.15,2013-06-14 02:30:00,
2013-06-13 22:35:00,56.4,53.5,29.73,NNW,335,0.0,6.0,90,0.00,,,1.44,Wunderground v.1.15,2013-06-14 02:35:00,
2013-06-13 22:40:00,56.3,53.4,29.73,NNW,335,0.0,6.0,90,0.00,,,1.44,Wunderground v.1.15,2013-06-14 02:40:00,
2013-06-13 22:45:00,56.1,53.2,29.73,NNW,335,0.0,6.0,90,0.00,,,1.44,Wunderground v.1.15,2013-06-14 02:45:00,
2013-06-13 22:50:00,56.0,53.4,29.73,NNW,335,0.0,6.0,91,0.00,,,1.44,Wunderground v.1.15,2013-06-14 02:50:00,
2013-06-13 22:55:00,55.8,53.2,29.74,NNW,335,0.0,6.0,91,0.00,,,1.44,Wunderground v.1.15,2013-06-14 02:55:00,
2013-06-13 23:05:00,55.7,53.1,29.73,NNW,335,0.0,6.0,91,0.00,,,1.44,Wunderground v.1.15,2013-06-14 03:05:00,
2013-06-13 23:10:00,55.5,52.9,29.73,NNW,335,0.0,6.0,91,0.00,,,1.44,Wunderground v.1.15,2013-06-14 03:10:00,
2013-06-13 23:15:00,55.4,52.8,29.74,NNW,335,0.0,6.0,91,0.00,,,1.44,Wunderground v.1.15,2013-06-14 03:15:00,
2013-06-13 23:20:00,55.3,52.7,29.74,NNW,335,0.0,6.0,91,0.00,,,1.44,Wunderground v.1.15,2013-06-14 03:20:00,
2013-06-13 23:25:00,55.2,52.6,29.74,NNW,335,0.0,6.0,91,0.00,,,1.44,Wunderground v.1.15,2013-06-14 03:25:00,
2013-06-13 23:30:00,55.1,52.8,29.74,NNW,335,0.0,6.0,92,0.00,,,1.44,Wunderground v.1.15,2013-06-14 03:30:00,
2013-06-13 23:35:00,55.1,52.8,29.73,NNW,335,0.0,6.0,92,0.00,,,1.44,Wunderground v.1.15,2013-06-14 03:35:00,
2013-06-13 23:40:00,55.0,52.7,29.74,NNW,335,0.0,6.0,92,0.00,,,1.44,Wunderground v.1.15,2013-06-14 03:40:00,
2013-06-13 23:45:00,55.0,52.7,29.74,NNW,335,0.0,6.0,92,0.00,,,1.44,Wunderground v.1.15,2013-06-14 03:45:00,
2013-06-13 23:55:00,55.0,52.7,29.74,NNW,335,0.0,6.0,92,0.00,,,1.44,Wunderground v.1.15,2013-06-14 03:55:00,